User: anonymous   Login
Location: Mount Graham
(32.7016°N, 109.8912°W)
Time: 14:12:24
(UTC-07:00)
Language:

Cosmos 1340 - Orbit

View from above orbital plane
View from above orbital plane
View from above satellite
View from above satellite

Ground track
Ground track

The orbit data is extracted from the following two-line orbital elements,

1 13067U 82013A   15144.52453088  .00002420  00000-0  12320-3 0  9990
2 13067 081.1874 292.5806 0003721 170.4970 255.7643 15.16452794813313
Epoch (UTC): 24 May 2015 12:35:19
Eccentricity: 0.0003721
inclination: 81.1874°
perigee height: 514 km
apogee height: 519 km
right ascension of ascending node: 292.5806°
argument of perigee: 170.4970°
revolutions per day: 15.16452794
mean anomaly at epoch: 255.7643°
orbit number at epoch: 81331

The dashed part of the orbit path shows where the satellite is in the earth's shadow,  

DLR